Dewpoint
11 11 12 14 15 14 14 14 16 16 16 14 13 13 13 12 12 12 12 12 12 12 12 12 12 12 13 13 13 13 13 13 13 15 16 16 14 14 14 14 15 15 16 16 17 18 19 20 20 20 21 24 25 25 25 25 25 25 25 26 25 25 25 24 24 23 23 24 24
11 11 13 15 16 15 14 14 15 16 15 13 13 13 13 12 12 12 12 12 12 12 12 12 13 13 12 12 13 13 13 13 13 14 15 14 14 13 13 14 14 15 16 17 18 19 19 20 20 20 21 22 24 25 25 25 25 25 25 26 26 25 25 24 24 23 24 24 24
10 11 11 12 12 12 11 12 12 12 12 12 13 13 13 13 13 13 12 12 12 12 12 12 12 12 12 12 13 13 13 13 14 14 14 14 14 13 14 14 14 15 16 17 18 19 19 20 20 20 20 21 23 24 25 25 25 25 25 25 26 25 25 25 24 24 24 24 24
10 10 10 11 11 11 11 11 12 12 12 12 12 13 13 13 13 13 13 13 12 12 12 12 11 12 12 13 13 13 14 16 16 16 15 14 14 14 14 14 14 15 15 16 18 19 20 20 20 20 20 20 21 23 24 24 25 25 25 25 25 25 25 25 25 25 25 25 25
10 10 11 11 11 11 11 12 12 12 12 13 13 13 13 13 13 12 12 12 12 12 13 13 12 12 13 13 13 13 14 15 18 17 15 15 14 14 14 14 14 15 16 17 18 19 20 20 20 20 19 19 20 21 23 24 24 25 25 24 25 25 25 25 25 25 25 25 26
10 10 11 11 11 12 12 13 13 13 13 13 13 13 13 13 13 12 12 12 12 13 14 15 16 16 16 14 14 14 14 14 16 16 15 14 15 15 15 15 14 15 16 17 18 20 20 21 20 19 19 18 19 20 21 22 23 24 24 24 24 24 25 25 25 25 25 25 26
10 11 11 11 11 12 13 13 13 14 14 13 13 13 13 12 12 12 12 12 13 13 14 16 16 15 14 13 13 14 14 15 15 15 15 15 15 15 15 15 14 15 16 17 18 20 20 21 20 20 19 19 18 18 20 20 22 23 24 24 24 24 24 24 25 25 25 25 25
11 11 12 12 12 12 13 13 14 14 14 14 14 13 13 13 12 12 13 13 13 13 14 15 13 12 12 12 13 13 14 15 15 15 15 16 15 15 15 14 15 15 16 17 19 20 21 21 20 20 19 18 17 17 18 19 21 22 23 23 23 24 24 24 24 24 24 24 25
11 12 12 13 13 13 14 14 14 14 14 14 14 14 14 14 14 13 13 13 14 15 15 14 13 13 13 13 13 14 14 15 15 15 15 16 16 16 15 15 16 16 17 18 19 20 21 21 20 20 20 19 18 17 17 19 20 21 22 22 22 22 22 22 23 23 23 23 24
12 12 12 13 13 14 14 15 15 15 15 15 15 15 16 17 16 15 14 14 16 15 14 13 13 13 13 13 14 15 15 16 16 16 16 16 16 16 16 16 16 16 17 18 19 20 20 21 21 21 21 20 19 18 18 18 19 20 20 20 20 21 21 21 21 21 22 23 23
12 12 12 12 13 14 15 15 16 16 16 16 16 15 16 17 16 16 16 16 15 14 14 14 14 14 14 14 15 16 16 16 16 16 16 16 16 16 16 16 17 17 17 18 19 20 20 21 21 22 22 22 20 19 18 18 18 19 19 19 19 20 20 20 20 21 21 22 22
12 12 12 13 13 14 15 15 16 16 16 16 16 15 15 14 14 16 16 16 15 15 14 14 15 15 15 15 16 16 17 16 16 16 16 16 16 16 16 17 17 17 17 18 19 20 20 21 21 22 22 22 20 19 18 18 18 18 18 17 18 19 19 19 19 20 20 21 22
12 12 12 13 13 14 15 15 16 16 16 16 15 15 14 14 15 16 16 15 16 15 15 15 16 16 16 16 16 16 16 16 16 16 16 17 17 17 17 17 17 17 18 19 19 20 20 20 21 21 21 21 20 18 17 17 17 17 17 17 18 18 18 18 18 19 19 20 21
12 12 12 13 14 14 15 16 16 16 16 16 15 15 14 14 16 17 17 15 15 15 15 16 16 17 17 16 16 16 16 16 16 16 17 17 17 17 17 18 17 18 18 19 20 20 20 20 21 21 21 20 18 17 16 16 16 16 17 17 17 17 17 17 17 17 18 19 20
12 12 13 13 14 15 15 16 16 16 16 16 16 15 15 15 16 17 17 16 16 16 16 16 16 17 18 18 17 17 17 17 17 17 17 18 18 18 18 18 18 18 19 19 20 20 20 20 20 21 20 19 17 16 15 15 15 16 16 16 17 16 16 16 16 16 17 18 19
12 12 13 14 14 15 16 16 16 16 16 16 16 16 16 16 17 17 18 17 16 16 16 16 16 16 17 19 19 18 18 17 17 17 17 18 18 18 19 19 19 19 19 19 20 20 20 20 21 20 20 18 16 15 14 14 15 15 16 16 16 15 15 15 16 16 16 16 18
13 13 14 14 15 16 16 16 16 16 16 16 16 16 17 17 17 18 19 20 18 17 17 16 17 17 17 19 19 19 18 18 18 18 18 19 19 19 19 19 20 19 19 19 19 20 20 20 20 20 19 17 15 14 13 13 14 15 15 16 15 14 13 16 16 16 16 16 17
13 14 14 15 15 16 16 17 17 17 17 17 17 17 17 18 18 18 19 20 19 18 17 17 17 17 18 18 18 18 19 18 18 18 19 19 19 20 20 20 20 20 19 18 19 19 19 19 20 20 19 17 15 13 12 12 14 15 16 16 15 13 13 14 14 15 15 15 17
13 14 15 15 16 16 17 18 18 18 18 18 18 18 18 18 18 18 18 18 19 19 18 18 18 18 18 18 17 18 19 19 19 18 19 19 19 19 19 19 20 19 19 18 18 19 19 19 20 20 19 17 15 13 12 12 14 15 16 16 15 13 12 12 13 13 14 14 16
14 15 15 16 16 17 18 19 18 18 18 18 18 18 18 18 18 18 18 18 19 19 18 18 18 18 18 18 18 18 19 19 19 19 18 19 19 19 19 19 19 19 19 17 18 18 19 19 19 20 20 17 15 13 12 13 14 15 16 16 15 14 12 12 12 12 12 13 14
15 16 16 16 17 17 18 18 18 18 18 18 18 18 18 18 18 18 18 19 19 19 18 18 19 19 19 19 18 18 19 20 19 19 19 19 19 19 19 20 19 19 19 18 18 18 18 19 19 20 20 19 16 15 13 14 14 15 16 16 16 14 13 12 12 12 13 14 15
16 16 17 17 18 18 18 18 18 18 18 18 18 18 17 18 18 18 18 19 19 19 19 19 19 19 19 19 19 19 19 20 19 19 19 18 19 19 19 20 19 19 19 18 18 18 18 19 20 20 21 21 18 16 15 15 16 16 16 16 16 14 13 12 13 13 13 13 14
17 17 18 18 18 19 20 20 19 18 18 17 17 17 17 17 18 18 18 18 19 19 19 19 19 20 20 20 19 19 19 19 19 18 18 17 17 17 18 18 18 19 19 19 19 18 19 20 20 21 22 22 20 18 17 16 17 17 17 16 15 14 13 12 12 12 12 12 13
18 18 18 18 18 18 19 18 18 17 17 17 17 17 17 17 17 18 18 18 18 18 19 19 20 20 20 20 19 19 19 18 18 17 17 16 16 16 17 18 18 19 19 20 21 22 22 23 23 23 23 22 21 19 18 17 17 17 17 16 14 14 13 13 11 11 11 11 13
18 19 19 18 18 18 18 18 18 17 17 17 17 17 17 17 17 17 17 17 17 18 18 19 19 19 19 19 19 19 18 18 17 16 16 16 16 16 17 17 18 19 20 22 25 26 26 25 25 24 23 23 22 20 19 18 18 18 17 16 14 14 13 12 11 11 11 11 11
17 18 18 18 18 18 18 18 18 17 17 17 17 17 17 17 17 17 17 17 17 17 17 18 18 19 20 20 19 18 17 16 16 16 16 16 16 16 16 17 18 19 20 24 26 27 26 26 25 25 25 24 22 21 20 19 19 18 17 16 15 14 13 12 11 11 11 11 11
17 17 17 18 18 17 17 17 17 17 17 17 17 17 17 17 17 17 16 16 16 16 16 17 17 19 20 19 17 16 16 16 16 16 16 16 16 16 16 17 18 19 21 25 26 27 26 26 26 26 26 25 24 23 21 20 20 19 18 16 16 14 13 11 11 11 11 11 11
16 16 16 16 16 16 16 17 17 17 17 16 17 17 17 17 17 16 16 16 16 16 16 16 16 17 17 16 16 16 16 16 16 16 16 16 16 16 16 16 17 20 24 26 26 26 26 26 26 26 26 26 25 24 24 23 22 21 19 18 16 15 13 12 11 11 10 9 9
16 16 15 15 15 15 16 16 17 17 17 16 17 17 17 17 17 16 16 16 16 15 15 15 16 16 15 15 15 15 15 15 15 16 16 16 15 15 16 16 18 20 24 26 26 26 26 26 26 26 26 26 24 24 24 25 24 22 21 19 18 16 14 12 11 10 9 9 9
14 14 14 14 14 15 16 16 17 17 17 17 17 17 17 17 17 16 16 16 16 16 16 16 15 14 14 14 14 14 15 15 15 15 15 15 15 16 16 18 18 20 23 25 26 26 26 26 26 27 27 26 25 24 24 25 25 24 23 21 20 18 16 15 13 11 10 9 9
12 13 13 14 14 15 16 17 17 17 17 17 17 17 17 17 17 17 17 16 16 17 18 17 15 14 13 13 13 13 14 14 14 14 14 14 16 17 17 17 17 20 23 25 25 26 27 27 27 27 27 27 26 24 23 23 24 24 24 23 21 20 20 18 17 15 13 11 11
12 12 13 14 14 15 16 17 18 18 17 17 17 17 17 17 17 17 17 17 17 17 17 16 15 14 13 13 13 13 13 13 13 14 15 16 16 16 16 16 16 19 22 25 25 26 27 28 28 28 28 28 26 24 22 21 22 22 22 22 21 21 20 20 20 18 16 15 13
13 13 14 15 15 16 17 18 18 18 18 17 17 17 17 17 18 18 18 18 18 17 16 15 14 14 13 13 13 13 13 13 14 15 16 16 16 15 15 16 15 18 23 25 26 27 27 28 28 29 29 29 27 24 22 20 20 20 20 20 20 20 20 20 20 20 19 18 16
15 15 16 16 17 17 18 18 18 18 18 18 17 17 17 18 18 18 18 19 18 17 16 16 15 15 14 14 13 13 13 15 14 14 13 14 14 14 14 15 14 18 23 25 26 27 28 28 29 29 29 29 26 23 21 20 20 19 19 19 19 19 20 20 21 21 21 20 18
16 16 16 17 18 18 18 19 18 18 18 17 17 18 18 18 18 18 19 20 20 18 17 16 16 15 15 14 14 14 14 15 14 13 12 13 13 14 14 15 15 19 23 25 26 27 28 29 29 29 29 29 25 22 20 20 19 19 19 19 18 19 19 20 21 21 21 21 20
17 17 18 18 18 18 19 19 18 18 17 17 17 18 18 18 18 18 19 20 20 18 17 16 16 15 15 15 14 15 16 15 14 13 13 14 14 14 14 14 15 19 23 25 27 28 28 29 29 29 29 27 25 23 21 20 20 20 19 19 18 18 18 19 20 21 22 22 22
18 18 18 18 18 18 18 18 18 17 17 17 17 18 18 18 18 18 19 20 18 17 16 16 16 16 15 15 15 15 15 15 15 15 15 16 16 15 14 15 15 18 22 26 27 28 28 29 29 29 28 26 25 24 23 22 21 21 20 20 19 19 19 20 20 21 22 23 23
19 19 19 18 18 18 18 18 17 17 17 17 17 18 18 18 18 18 19 20 18 17 16 16 16 16 15 15 16 16 16 15 16 16 16 16 16 15 16 16 16 18 22 25 27 28 28 29 29 29 28 26 26 25 25 25 24 23 22 21 21 21 21 22 21 22 23 24 26
18 19 18 18 18 18 18 17 17 17 17 17 17 18 18 18 18 18 19 20 18 17 16 16 16 16 16 17 17 16 16 16 16 17 17 16 16 17 19 18 18 19 22 25 27 27 28 28 29 29 29 28 27 26 26 26 25 25 24 24 24 24 24 24 24 24 24 25 29
18 18 18 18 18 17 17 17 17 17 17 17 17 17 18 18 19 19 20 19 18 17 16 16 16 16 17 19 18 17 16 16 16 16 16 17 18 20 22 20 19 19 21 25 26 27 27 28 29 29 29 29 28 27 27 27 27 27 26 26 26 26 26 26 25 26 26 27 29
16 17 17 17 17 17 17 16 16 16 16 17 17 18 19 20 20 19 19 18 17 16 16 16 16 16 17 19 18 17 16 16 16 16 16 18 19 20 21 20 19 18 19 22 25 27 28 28 29 30 30 30 29 29 29 29 28 28 28 28 28 28 27 27 27 27 28 28 28